[[{"header":{"parameterUnit":"m.s-1","parameterCategory":1,"la1":30.2991,"la2":30.254,"lo1":-89.0895,"lo2":-89.0444,"dy":0.0017,"dx":0.0017,"nx":28,"ny":28,"refTime":"2025-08-16T09:00:00:Z","depth":0,"parameterNumber":2,"parameterNumberName":"U-component_of_WINDS"},"data":[0,0,0,0,0,0,0,0,0,0,0,0,0,0,0,0,0,0,0,0,0,0,0,0,0,0,0,0,0,0,0,0,0,0,0,0,0,0,0,0,0,0,0,0,0,0,0,0,0,0,0,0,0,0,0,0,0,0,-0.0195,-0.0197,0,-0.0335,-0.0336,-0.0338,-0.0408,-0.0408,-0.0408,-0.0408,-0.0553,-0.0557,-0.0561,0,0,0,0,0,0,0,0,0,0,0,0,0,0.0009,0.0005,-0.0195,-0.0197,-0.0199,-0.0334,-0.0336,-0.0338,-0.0408,-0.0408,-0.0408,-0.0408,-0.0552,-0.0556,-0.0561,0,0,0,0,0,0,0,0,0,0,0,0,0,-0.01,0.0004,-0.0195,-0.025,-0.0256,-0.0334,-0.0336,-0.0339,-0.0408,-0.0408,-0.0408,-0.0408,-0.055,-0.0556,-0.0562,-0.0597,0,0,-0.0579,-0.0582,0,0,0,0,0,0,0,0,-0.0094,-0.0108,-0.024,-0.0246,-0.0253,-0.0354,-0.0318,-0.0426,-0.0408,-0.035,-0.0408,-0.0408,-0.0487,-0.0498,-0.0524,-0.0604,-0.061,-0.058,-0.0583,-0.0586,-0.0588,0,0,0,0,0,0,0,-0.0086,-0.0102,-0.0251,-0.0242,-0.025,-0.0268,-0.0283,-0.0339,-0.0417,-0.0355,-0.036,-0.0376,-0.0491,-0.0518,-0.0528,-0.0612,-0.058,-0.0585,-0.0589,-0.0591,-0.0729,-0.0729,0,0,0,0,0,0,-0.007,-0.0095,-0.0246,-0.0255,-0.0172,-0.0272,-0.0289,-0.0321,-0.0416,-0.0431,-0.0376,-0.0379,-0.0509,-0.0521,-0.0534,-0.0582,-0.0586,-0.0591,-0.0595,-0.0728,-0.0729,-0.0729,0,0,0,0,0,0,-0.0065,-0.0082,-0.024,-0.0177,-0.0198,-0.0275,-0.0311,-0.0324,-0.0352,-0.0432,-0.0446,-0.039,-0.0509,-0.0525,-0.0581,-0.0587,-0.0594,-0.0599,-0.0728,-0.0728,-0.0729,-0.0677,0,0,0,0,0,0,-0.0059,-0.008,-0.0094,-0.0176,-0.0201,-0.0284,-0.0311,-0.0327,-0.0362,-0.0367,-0.0449,-0.0462,-0.051,-0.0572,-0.0586,-0.0596,-0.0604,-0.0728,-0.0728,-0.0729,-0.0678,-0.0676,-0.0673,0,0,0,0,0,-0.0051,-0.0074,-0.0094,-0.0112,-0.0219,-0.0284,-0.0299,-0.0353,-0.0362,-0.0376,-0.0428,-0.046,-0.0584,-0.0577,-0.0594,-0.0605,-0.0728,-0.0728,-0.0729,-0.068,-0.0676,-0.0673,0,0,0,0,0,0,0.0009,-0.0086,-0.0109,-0.0159,-0.0213,-0.0296,-0.0316,-0.0347,-0.04,-0.0403,-0.0468,-0.0486,-0.0536,-0.0576,-0.0566,-0.0644,-0.0659,-0.0663,-0.0616,-0.0613,-0.0611,-0.06,-0.0609,0,0,0,0,0,0.0017,-0.0028,-0.0108,-0.0145,-0.0171,-0.0238,-0.0269,-0.0306,-0.0364,-0.0388,-0.0443,-0.05,-0.0552,-0.0585,-0.0637,-0.0685,-0.0704,-0.0701,-0.0698,-0.0695,-0.0698,-0.0727,-0.0726,-0.073,-0.073,-0.073,0,0,0.0031,-0.0026,-0.005,-0.0134,-0.018,-0.0225,-0.0257,-0.0303,-0.0338,-0.0395,-0.0451,-0.0493,-0.0561,-0.0612,-0.0638,-0.0648,-0.0701,-0.0696,-0.0693,-0.0698,-0.0727,-0.0727,-0.0726,-0.0731,-0.073,-0.073,0,0,0.0036,-0.0012,-0.0047,-0.0093,-0.0162,-0.0207,-0.0216,-0.0294,-0.0324,-0.0381,-0.0425,-0.0467,-0.0555,-0.0602,-0.0637,-0.065,-0.0682,-0.0666,-0.0651,-0.0679,-0.0678,-0.0678,-0.0684,-0.0685,-0.0668,-0.0668,-0.0668,0,0.0063,-0.0006,-0.0062,-0.0106,-0.0142,-0.0195,-0.0232,-0.0274,-0.0357,-0.0381,-0.039,-0.0502,-0.0552,-0.0615,-0.0618,-0.0645,-0.0657,-0.0657,-0.0674,-0.0674,-0.0675,-0.0681,-0.0683,-0.0666,-0.0666,-0.0666,-0.0666,0,0.0031,-0.0016,-0.0037,-0.0115,-0.0153,-0.0193,-0.0256,-0.0289,-0.0322,-0.0367,-0.0424,-0.0485,-0.0551,-0.0568,-0.0602,-0.0637,-0.0641,-0.0661,-0.0677,-0.0671,-0.0678,-0.0681,-0.0662,-0.0663,-0.0664,-0.0664,0,0,0.0069,-0.0039,-0.0046,-0.0082,-0.0163,-0.0201,-0.0243,-0.0307,-0.0333,-0.0389,-0.0427,-0.05,-0.052,-0.056,-0.0599,-0.0623,-0.063,-0.0641,-0.0643,-0.0637,-0.0673,-0.0657,-0.0659,-0.0651,-0.0652,-0.0653,-0.0667,0,0.0062,-0.0016,-0.0068,-0.0127,-0.0171,-0.0223,-0.026,-0.0314,-0.0357,-0.0401,-0.0449,-0.05,-0.0521,-0.0546,-0.0572,-0.0623,-0.0638,-0.0623,-0.0688,-0.069,-0.067,-0.0662,-0.0646,-0.0657,-0.067,-0.0671,-0.0671,0,0.0043,-0.001,-0.0072,-0.0148,-0.0169,-0.0201,-0.0264,-0.0306,-0.0368,-0.0398,-0.0442,-0.0482,-0.053,-0.0542,-0.061,-0.0599,-0.0629,-0.0658,-0.066,-0.0669,-0.068,-0.067,-0.0661,-0.0663,-0.0676,-0.0675,-0.0675,0,0.0078,-0.001,-0.0059,-0.0088,-0.0178,-0.02,-0.0238,-0.0301,-0.0336,-0.0391,-0.0414,-0.0474,-0.0507,-0.0553,-0.0609,-0.0612,-0.0672,-0.0688,-0.0698,-0.0697,-0.0709,-0.0707,-0.0704,-0.0727,-0.0727,-0.0727,-0.0727,0,0.0075,0.0039,-0.0045,-0.0074,-0.0117,-0.0177,-0.0217,-0.026,-0.0316,-0.0356,-0.0404,-0.0441,-0.0512,-0.0558,-0.0602,-0.0652,-0.0666,-0.0692,-0.0703,-0.0688,-0.0684,-0.0708,-0.0709,-0.0728,-0.0728,-0.0727,-0.0727,0,0.0106,0.0049,-0.0008,-0.0088,-0.0109,-0.0137,-0.0206,-0.0237,-0.0283,-0.0333,-0.0348,-0.0419,-0.0476,-0.0535,-0.0612,-0.0642,-0.069,-0.0706,-0.0669,-0.0675,-0.0682,-0.068,-0.0695,-0.07,-0.0718,-0.0718,-0.0718,0,0.0109,0.008,-0.0004,-0.0033,-0.0071,-0.0118,-0.0154,-0.0214,-0.025,-0.0323,-0.0346,-0.0406,-0.0457,-0.0545,-0.0604,-0.0663,-0.0681,-0.0682,-0.0691,-0.0674,-0.0682,-0.0679,-0.0683,-0.0679,-0.0679,-0.0678,-0.0678,0,0.0119,0.0092,0.0042,-0.0017,-0.0058,-0.0108,-0.016,-0.0182,-0.0253,-0.029,-0.0348,-0.0387,-0.0466,-0.0525,-0.0591,-0.0632,-0.0667,-0.0675,-0.068,-0.0665,-0.0642,-0.0655,-0.0661,-0.0674,-0.0675,-0.0675,-0.0675,-0.0675,0.0135,0.0107,0.0044,-0.001,-0.0055,-0.0102,-0.0136,-0.0185,-0.0234,-0.0302,-0.0335,-0.0393,-0.0456,-0.0548,-0.0589,-0.0635,-0.0646,-0.0654,-0.0656,-0.0657,-0.0653,-0.0634,-0.0648,-0.0648,-0.0648,-0.0648,-0.0648,0,0.0142,0.0099,0.0051,-0.002,-0.0062,-0.0091,-0.015,-0.0183,-0.0233,-0.0289,-0.0338,-0.0404,-0.0462,-0.0526,-0.0588,-0.0613,-0.0631,-0.0627,-0.0626,-0.0635,-0.064,-0.0629,-0.0612,-0.0612,-0.0612,-0.0612,-0.0612,-0.0612,0.0141,0.0092,0.0057,-0.0015,-0.0059,-0.0115,-0.0146,-0.0191,-0.0235,-0.0307,-0.0355,-0.0396,-0.0455,-0.0522,-0.0576,-0.0594,-0.0614,-0.0606,-0.0628,-0.0632,-0.0635,-0.0637,-0.0627,-0.061,-0.061,-0.062,-0.062,-0.062]},{"header":{"parameterUnit":"m.s-1","parameterCategory":1,"la1":30.2991,"la2":30.254,"lo1":-89.0895,"lo2":-89.0444,"dy":0.0017,"dx":0.0017,"nx":28,"ny":28,"refTime":"2025-08-16T09:00:00:Z","depth":0,"parameterNumber":3,"parameterNumberName":"V-component_of_WINDS"},"data":[0,0,0,0,0,0,0,0,0,0,0,0,0,0,0,0,0,0,0,0,0,0,0,0,0,0,0,0,0,0,0,0,0,0,0,0,0,0,0,0,0,0,0,0,0,0,0,0,0,0,0,0,0,0,0,0,0,0,-2.3789,-2.3789,0,-2.3773,-2.3772,-2.3772,-2.3723,-2.3722,-2.3721,-2.372,-2.3702,-2.3702,-2.3703,0,0,0,0,0,0,0,0,0,0,0,0,0,-2.3778,-2.3779,-2.3789,-2.3789,-2.3789,-2.3773,-2.3772,-2.3772,-2.3723,-2.3722,-2.372,-2.3719,-2.3702,-2.3702,-2.3703,0,0,0,0,0,0,0,0,0,0,0,0,0,-2.3774,-2.3779,-2.3789,-2.3762,-2.376,-2.3773,-2.3772,-2.3772,-2.3723,-2.3722,-2.372,-2.3718,-2.3702,-2.3702,-2.3703,-2.3741,0,0,-2.3706,-2.3706,0,0,0,0,0,0,0,0,-2.3775,-2.3775,-2.3766,-2.3764,-2.3761,-2.3748,-2.3762,-2.3762,-2.3724,-2.3737,-2.372,-2.3718,-2.3719,-2.3718,-2.3718,-2.374,-2.3739,-2.3706,-2.3706,-2.3707,-2.3707,0,0,0,0,0,0,0,-2.3775,-2.3775,-2.3782,-2.3766,-2.3763,-2.3751,-2.3749,-2.3762,-2.3737,-2.3736,-2.3732,-2.3731,-2.3717,-2.3718,-2.3718,-2.3739,-2.3706,-2.3706,-2.3707,-2.3707,-2.3792,-2.3793,0,0,0,0,0,0,-2.3779,-2.3776,-2.3783,-2.3782,-2.3764,-2.3753,-2.375,-2.3754,-2.3737,-2.3733,-2.3732,-2.3729,-2.3717,-2.3717,-2.3717,-2.376,-2.3707,-2.3707,-2.3708,-2.379,-2.3792,-2.3794,0,0,0,0,0,0,-2.3779,-2.378,-2.3784,-2.3778,-2.3777,-2.3754,-2.3759,-2.3754,-2.3755,-2.3734,-2.373,-2.3738,-2.3716,-2.3716,-2.3735,-2.3759,-2.3708,-2.3708,-2.3788,-2.379,-2.3793,-2.3847,0,0,0,0,0,0,-2.3779,-2.3781,-2.3794,-2.3779,-2.3778,-2.3803,-2.3761,-2.3755,-2.3757,-2.3752,-2.3738,-2.3734,-2.3714,-2.3734,-2.3736,-2.3759,-2.3709,-2.3786,-2.3789,-2.3792,-2.3843,-2.3851,-2.3858,0,0,0,0,0,-2.3779,-2.381,-2.3795,-2.3796,-2.3795,-2.3804,-2.3804,-2.3781,-2.3759,-2.3773,-2.376,-2.3735,-2.3756,-2.3737,-2.3738,-2.3762,-2.3784,-2.3788,-2.3792,-2.3839,-2.3849,-2.3858,0,0,0,0,0,0,-2.3828,-2.3807,-2.3791,-2.3817,-2.3813,-2.3796,-2.3812,-2.3792,-2.3793,-2.3788,-2.3759,-2.3757,-2.3781,-2.3773,-2.3752,-2.3798,-2.3766,-2.377,-2.3802,-2.3811,-2.3818,-2.3819,-2.371,0,0,0,0,0,-2.3842,-2.3851,-2.3833,-2.3858,-2.3857,-2.3835,-2.3838,-2.3821,-2.3815,-2.3813,-2.3801,-2.3796,-2.3802,-2.3806,-2.381,-2.3842,-2.3838,-2.3859,-2.3866,-2.3873,-2.3876,-2.3893,-2.3902,-2.3807,-2.3807,-2.3807,0,0,-2.387,-2.386,-2.3868,-2.3868,-2.3862,-2.3873,-2.3834,-2.3846,-2.3854,-2.3815,-2.3833,-2.3824,-2.3817,-2.3843,-2.3854,-2.3837,-2.3902,-2.3878,-2.3883,-2.3883,-2.3898,-2.3908,-2.3916,-2.3809,-2.3809,-2.3809,0,0,-2.3928,-2.3921,-2.3942,-2.3938,-2.3931,-2.3916,-2.3922,-2.3908,-2.3901,-2.3919,-2.389,-2.3899,-2.3909,-2.3905,-2.3905,-2.3964,-2.3941,-2.3966,-2.4005,-2.4022,-2.4029,-2.4036,-2.4057,-2.4065,-2.397,-2.397,-2.397,0,-2.3964,-2.3979,-2.3955,-2.397,-2.3971,-2.3938,-2.3959,-2.3956,-2.395,-2.3951,-2.3933,-2.3946,-2.3939,-2.3964,-2.3979,-2.398,-2.3985,-2.3967,-2.403,-2.4037,-2.4042,-2.4062,-2.407,-2.3973,-2.3973,-2.3973,-2.3972,0,-2.4024,-2.4035,-2.4053,-2.4049,-2.4052,-2.407,-2.405,-2.4056,-2.4039,-2.4027,-2.4047,-2.4037,-2.4039,-2.4044,-2.4027,-2.4067,-2.4057,-2.4035,-2.4003,-2.4055,-2.4073,-2.408,-2.3978,-2.3977,-2.3976,-2.3975,0,0,-2.411,-2.4095,-2.4101,-2.41,-2.409,-2.4098,-2.4116,-2.4118,-2.4124,-2.4122,-2.4135,-2.4146,-2.4126,-2.4126,-2.4109,-2.4124,-2.4172,-2.41,-2.4099,-2.4113,-2.4215,-2.4232,-2.4241,-2.4157,-2.4158,-2.4159,-2.4216,0,-2.4164,-2.4192,-2.4173,-2.4204,-2.4214,-2.4184,-2.4199,-2.4195,-2.4185,-2.4192,-2.418,-2.4188,-2.4161,-2.4161,-2.4175,-2.4163,-2.4192,-2.4159,-2.4169,-2.417,-2.4171,-2.425,-2.4267,-2.4321,-2.4223,-2.4224,-2.4225,0,-2.4231,-2.4233,-2.4266,-2.4256,-2.4259,-2.4273,-2.4274,-2.4282,-2.4277,-2.4269,-2.427,-2.4249,-2.4265,-2.4235,-2.4257,-2.4235,-2.4238,-2.4234,-2.4235,-2.4234,-2.42,-2.4252,-2.4337,-2.4346,-2.4236,-2.4235,-2.4234,0,-2.429,-2.4301,-2.4322,-2.4322,-2.4311,-2.4321,-2.4317,-2.4311,-2.4314,-2.4316,-2.4318,-2.4321,-2.4323,-2.4326,-2.4308,-2.4287,-2.4333,-2.43,-2.4326,-2.4327,-2.4336,-2.4335,-2.4423,-2.434,-2.4339,-2.4339,-2.4339,0,-2.4352,-2.4373,-2.4349,-2.4362,-2.4385,-2.4363,-2.4386,-2.4379,-2.4374,-2.4386,-2.436,-2.4371,-2.4346,-2.4354,-2.434,-2.4361,-2.4362,-2.4356,-2.4352,-2.4358,-2.4359,-2.4359,-2.4354,-2.4341,-2.4341,-2.434,-2.434,0,-2.4421,-2.4406,-2.4427,-2.4415,-2.4413,-2.4431,-2.4421,-2.4433,-2.4422,-2.4437,-2.4439,-2.4421,-2.443,-2.4413,-2.4419,-2.441,-2.4439,-2.4429,-2.4441,-2.4438,-2.4465,-2.4462,-2.4555,-2.4567,-2.4476,-2.4477,-2.4478,0,-2.4461,-2.4477,-2.4468,-2.4474,-2.4472,-2.4482,-2.4486,-2.4465,-2.447,-2.4467,-2.448,-2.4487,-2.4491,-2.4508,-2.4495,-2.4501,-2.449,-2.4523,-2.4491,-2.4497,-2.4491,-2.449,-2.4491,-2.4529,-2.453,-2.4531,-2.4532,0,-2.4534,-2.4527,-2.4533,-2.4538,-2.4544,-2.4546,-2.4547,-2.4554,-2.4532,-2.4539,-2.4549,-2.4552,-2.456,-2.4567,-2.457,-2.4566,-2.4545,-2.4542,-2.4548,-2.4554,-2.456,-2.4558,-2.4458,-2.454,-2.4539,-2.4538,-2.4538,-2.4538,-2.459,-2.4603,-2.4599,-2.4608,-2.4607,-2.4609,-2.462,-2.4611,-2.4619,-2.4624,-2.4611,-2.4624,-2.4621,-2.4622,-2.462,-2.463,-2.4616,-2.4625,-2.4627,-2.4629,-2.4634,-2.456,-2.4631,-2.463,-2.463,-2.463,-2.463,0,-2.4661,-2.4658,-2.4667,-2.4669,-2.4677,-2.4658,-2.4659,-2.4666,-2.4678,-2.4677,-2.4682,-2.4694,-2.4702,-2.4691,-2.4697,-2.4707,-2.4698,-2.4709,-2.4708,-2.4708,-2.4646,-2.464,-2.4717,-2.4717,-2.4717,-2.4717,-2.4717,-2.4717,-2.4699,-2.4721,-2.4713,-2.4735,-2.4731,-2.4744,-2.4746,-2.4748,-2.4747,-2.4761,-2.4768,-2.4762,-2.4757,-2.4763,-2.4769,-2.4766,-2.4769,-2.4784,-2.4777,-2.472,-2.4712,-2.4703,-2.4698,-2.4785,-2.4785,-2.4838,-2.4838,-2.4839]}]]